Location: *
(50.3194°N, 7.1067°E)
Time: 00:00:13
(UTC+00:00)

CZ-4C R/B - Pass Details

Date: 22 September 2019
Orbit: 654 x 1348 km, 63.4° (Epoch: 15 October)

Event Time Altitude Azimuth Distance (km) Brightness Sun altitude
Rises 20:59:59 0° 313° (NW) 3,645 6.7 -30.9°
Reaches altitude 10° 21:02:31 10° 320° (NW) 2,797 5.8 -31.2°
Maximum altitude 21:08:59 46° 33° (NNE) 1,487 3.4 -31.9°
Enters shadow 21:09:49 45° 52° (NE) 1,539 3.4 -32.0°
